Temp
9 8 8 8 8 7 7 7 7 7 6 6 7 6 5 5 4 4 4 3 3 3 3 3 3 4 4 4 4 3 2 1
9 8 8 8 8 7 7 7 7 7 6 6 6 6 6 5 5 5 4 3 4 3 3 3 3 4 4 4 3 3 2 1
9 9 8 8 8 8 7 7 7 7 6 6 6 6 6 5 5 5 3 3 3 3 3 3 2 3 3 4 4 3 1 0
9 9 8 8 8 7 7 7 7 7 7 6 6 5 5 5 4 4 3 3 3 3 3 2 2 3 3 4 3 2 1 0
9 9 9 8 8 8 7 7 7 7 7 7 6 5 5 5 4 4 4 3 3 3 2 2 2 3 3 4 3 4 1 0
9 9 9 8 8 8 7 7 7 7 6 6 6 5 5 5 4 4 3 3 3 3 2 2 2 2 3 3 3 3 3 3
8 8 8 8 8 8 8 7 7 7 6 6 6 6 5 4 4 3 3 3 3 2 2 1 0 2 3 3 3 2 4 3
8 8 8 8 8 8 8 8 8 7 7 6 6 6 5 4 3 3 3 2 2 2 1 1 1 2 2 3 3 3 3 3
8 8 8 8 8 8 8 8 7 8 7 7 6 6 5 5 4 3 3 3 2 2 1 2 1 1 2 2 2 3 3 3
7 6 7 8 8 8 7 7 7 8 8 7 6 6 6 5 5 4 4 3 3 2 1 2 2 2 2 2 2 2 2 3
8 7 7 7 7 7 7 7 8 8 8 8 7 6 6 5 5 5 4 4 3 2 2 1 1 2 2 2 2 2 3 3
7 7 7 7 7 7 7 8 8 8 8 7 7 6 6 5 5 5 5 4 3 2 1 2 -0 2 2 1 1 3 2 2
7 7 7 7 7 8 8 8 8 8 8 8 7 7 6 6 5 5 5 4 4 2 1 1 0 1 2 1 1 2 2 2
7 7 7 7 7 8 8 8 8 8 8 7 7 7 6 6 5 5 4 4 4 3 2 2 2 1 1 1 1 1 1 2
6 7 7 7 8 8 8 8 8 8 8 8 7 6 6 6 5 4 4 3 3 3 2 2 1 0 1 2 2 1 2 2
6 6 7 7 7 8 8 8 9 9 8 7 6 6 6 6 5 4 4 4 3 2 2 1 1 1 1 1 1 2 3 3
5 6 6 6 6 7 8 9 8 8 7 7 6 6 6 6 5 4 4 4 3 2 2 2 1 2 1 1 1 1 2 2
5 5 6 6 6 7 8 8 8 8 7 7 6 6 6 6 5 4 3 4 2 2 2 1 2 1 1 1 2 1 2 1
5 5 5 6 6 7 8 8 7 7 7 6 6 7 6 6 4 4 3 3 2 2 2 2 1 1 0 1 1 1 2 1
4 5 5 5 6 7 7 7 7 6 6 6 6 6 6 6 4 3 3 3 1 1 2 2 2 2 1 -0 1 1 2 1
Height
3127 3127 3128 3128 3130 3129 3129 3129 3129 3128 3128 3129 3130 3131 3132 3132 3132 3133 3132 3134 3134 3134 3135 3137 3140 3143 3143 3145 3147 3149 3150 3154
3124 3125 3126 3126 3127 3128 3127 3127 3127 3127 3127 3127 3128 3129 3129 3129 3130 3131 3131 3132 3133 3133 3133 3133 3136 3140 3141 3143 3145 3148 3151 3153
3120 3122 3122 3123 3124 3125 3125 3125 3125 3125 3124 3125 3125 3126 3127 3126 3126 3128 3128 3129 3130 3131 3131 3132 3134 3137 3139 3141 3144 3147 3149 3152
3117 3117 3118 3119 3120 3121 3122 3122 3122 3122 3122 3122 3122 3123 3123 3123 3122 3123 3124 3125 3126 3128 3128 3129 3131 3135 3136 3139 3143 3144 3147 3149
3113 3113 3114 3114 3115 3116 3117 3118 3119 3119 3119 3119 3120 3120 3119 3120 3120 3120 3120 3122 3122 3124 3127 3127 3129 3132 3134 3136 3140 3143 3145 3144
3108 3109 3109 3110 3109 3110 3113 3113 3114 3115 3116 3116 3116 3115 3115 3116 3116 3116 3117 3117 3119 3121 3123 3125 3126 3129 3132 3134 3138 3141 3142 3141
3102 3103 3104 3104 3105 3106 3107 3108 3110 3111 3111 3112 3112 3112 3111 3112 3111 3111 3111 3112 3114 3117 3119 3121 3122 3126 3129 3132 3135 3138 3140 3140
3096 3097 3097 3099 3100 3101 3103 3104 3104 3106 3106 3107 3108 3107 3106 3107 3107 3106 3105 3107 3109 3110 3114 3117 3120 3122 3126 3130 3133 3135 3138 3138
3089 3089 3091 3091 3094 3094 3096 3098 3099 3100 3101 3102 3102 3103 3102 3101 3101 3100 3100 3102 3100 3104 3106 3113 3115 3117 3123 3127 3130 3132 3136 3137
3082 3082 3082 3085 3086 3087 3089 3091 3093 3094 3095 3096 3097 3097 3097 3097 3096 3096 3096 3097 3096 3099 3103 3108 3111 3115 3119 3124 3126 3130 3133 3135
3073 3076 3076 3077 3079 3078 3080 3084 3086 3087 3089 3090 3091 3092 3092 3090 3090 3091 3092 3092 3093 3097 3097 3105 3109 3112 3117 3120 3123 3126 3130 3133
3065 3068 3069 3070 3070 3070 3070 3074 3078 3080 3082 3083 3085 3086 3086 3085 3084 3084 3085 3087 3090 3093 3095 3099 3104 3108 3113 3115 3120 3123 3127 3130
3057 3059 3060 3060 3060 3061 3062 3065 3069 3073 3075 3077 3079 3081 3081 3079 3077 3078 3079 3081 3083 3088 3089 3094 3099 3104 3109 3113 3115 3120 3124 3126
3048 3049 3051 3052 3052 3053 3054 3059 3062 3066 3069 3071 3072 3073 3073 3073 3071 3071 3073 3074 3076 3080 3083 3088 3092 3099 3100 3105 3109 3117 3119 3123
3041 3041 3041 3043 3045 3045 3047 3051 3054 3058 3061 3064 3067 3068 3067 3065 3065 3065 3066 3067 3069 3074 3077 3079 3085 3092 3094 3100 3104 3108 3115 3119
3035 3035 3035 3036 3037 3037 3041 3045 3048 3052 3055 3058 3060 3060 3060 3059 3058 3058 3058 3060 3061 3064 3068 3073 3078 3083 3090 3096 3103 3110 3109 3115
3028 3028 3028 3029 3030 3032 3035 3038 3041 3045 3048 3051 3053 3054 3053 3052 3051 3050 3050 3050 3051 3052 3058 3064 3070 3077 3084 3090 3097 3102 3108 3111
3022 3021 3022 3023 3025 3027 3029 3032 3036 3039 3041 3044 3046 3047 3046 3046 3045 3044 3043 3043 3042 3043 3048 3055 3062 3070 3080 3087 3092 3097 3100 3106
3017 3017 3017 3017 3018 3021 3023 3026 3030 3033 3036 3038 3039 3041 3040 3040 3038 3037 3036 3036 3032 3037 3042 3047 3056 3064 3073 3080 3087 3094 3098 3104
3012 3012 3011 3012 3013 3015 3017 3020 3024 3028 3030 3033 3032 3034 3033 3033 3031 3031 3032 3032 3030 3031 3036 3043 3049 3057 3064 3073 3081 3087 3095 3099
Wind_Speed
8 7 8 8 8 7 6 4 4 4 5 6 8 10 13 14 17 19 16 15 13 8 8 12 12 13 12 13 14 14 15 12
13 11 10 10 10 10 9 8 7 7 8 8 8 10 14 17 16 17 15 16 10 9 12 16 18 17 14 15 15 15 13 15
16 15 15 13 14 11 12 12 10 9 11 11 11 14 16 18 19 16 15 16 16 19 17 11 15 18 16 16 17 17 14 12
21 19 17 17 17 14 13 14 15 12 12 13 15 16 18 20 21 18 18 19 19 19 14 14 14 19 19 18 19 18 15 16
26 22 20 20 20 18 18 17 18 16 14 15 17 19 19 20 21 23 21 21 24 24 22 16 17 19 21 19 21 20 15 18
29 27 25 25 25 23 21 22 21 21 19 17 18 20 21 22 23 25 24 24 25 26 28 25 24 22 23 22 23 17 19 20
32 30 30 28 28 27 25 26 23 25 25 22 20 21 23 24 24 27 26 27 26 30 25 17 18 22 21 22 22 22 21 20
35 35 34 32 31 30 28 28 28 26 28 26 24 24 24 25 24 27 29 28 26 32 26 22 17 31 19 23 25 24 20 19
35 38 37 36 33 33 28 29 30 31 29 27 27 25 26 26 24 24 28 27 33 27 23 26 20 28 28 27 26 24 21 18
34 30 41 40 39 38 35 32 28 33 31 28 27 27 27 27 26 25 22 28 35 22 29 23 21 28 28 29 29 25 23 21
38 39 40 40 39 43 40 35 31 31 34 29 27 27 28 29 28 27 24 27 25 24 30 36 30 33 30 32 31 29 24 23
32 32 33 35 35 36 40 38 32 30 33 31 27 27 30 31 30 28 29 30 31 32 31 30 35 31 32 34 32 29 26 24
30 30 31 33 35 35 36 35 28 29 30 31 26 27 29 31 31 29 29 34 33 31 28 38 40 34 37 36 34 30 28 27
28 29 30 30 32 32 36 31 27 28 29 27 27 26 28 30 30 30 30 29 33 31 42 43 42 39 43 42 39 31 30 28
26 27 28 26 30 32 32 29 29 31 29 28 25 24 28 31 30 31 29 32 35 37 38 43 41 47 44 43 41 39 33 30
24 23 24 27 27 29 28 29 31 31 28 24 25 24 26 29 31 31 30 31 37 40 41 36 46 47 47 41 38 37 37 32
22 22 24 27 27 30 28 29 30 29 29 28 25 24 25 27 30 29 27 32 39 35 33 39 55 44 51 46 43 38 35 33
21 20 23 25 27 30 30 30 30 31 30 26 25 24 24 27 29 24 26 29 38 36 41 45 57 45 50 48 45 43 38 31
21 21 23 24 24 29 30 34 34 34 29 28 25 24 24 27 25 22 24 25 24 33 39 31 48 49 53 47 46 42 40 27
20 22 24 25 24 27 30 34 35 33 29 26 26 26 24 27 24 22 23 23 26 30 36 45 49 54 51 49 46 45 39 30
Wind_Direction
250 264 282 293 294 311 344 324 290 271 230 242 269 263 259 269 275 285 280 310 289 228 228 267 258 254 220 217 203 195 169 208
252 260 265 274 282 286 294 316 282 274 266 252 251 260 265 264 268 273 264 289 225 221 267 280 248 238 221 218 206 200 158 200
247 253 253 256 264 271 279 288 297 278 269 263 257 250 262 268 265 267 263 272 255 255 263 247 229 223 214 213 211 203 179 176
246 244 246 249 252 257 262 271 282 288 275 273 270 262 269 275 270 266 260 262 253 253 246 217 221 225 211 212 209 203 189 195
254 248 248 246 248 251 253 258 268 276 278 273 273 267 270 270 276 268 255 256 248 245 244 231 228 228 218 204 216 217 198 212
253 253 253 249 249 252 251 253 259 266 274 280 275 274 275 277 276 267 257 259 252 245 246 239 226 225 221 208 211 203 214 221
248 250 254 256 257 258 253 254 250 264 268 273 281 282 281 280 274 269 257 259 249 243 244 237 199 224 215 214 209 203 221 228
248 250 250 251 257 259 256 257 259 256 263 268 275 284 288 286 273 268 259 262 252 233 224 223 219 230 216 215 212 215 214 225
248 252 248 252 253 258 256 260 259 262 262 264 270 280 287 289 285 267 264 264 242 255 215 230 225 227 214 217 215 217 216 221
244 248 253 253 257 256 258 258 262 258 258 259 264 276 283 286 283 264 239 247 249 252 222 223 200 218 208 210 220 219 222 223
248 250 256 258 257 260 258 257 259 256 255 256 260 270 280 285 283 262 243 242 249 246 235 224 222 212 204 210 219 219 221 222
258 257 258 259 261 257 261 257 255 249 249 254 260 265 278 284 282 267 247 241 235 241 227 226 204 210 203 212 217 222 222 219
266 264 261 259 260 261 257 254 252 245 245 249 257 262 276 283 279 265 248 247 247 254 236 222 207 211 205 208 218 219 221 221
270 268 263 254 257 257 251 245 246 243 238 244 251 266 278 280 275 264 254 254 249 246 238 226 212 205 210 209 208 208 217 223
267 269 265 256 254 250 243 241 239 233 237 241 253 263 275 283 271 260 255 254 253 247 243 234 212 206 214 213 210 211 213 217
269 266 261 253 250 243 242 243 237 234 240 242 248 264 276 281 275 260 257 257 260 250 250 226 214 211 209 216 219 226 219 216
271 268 259 251 247 244 246 240 228 226 232 236 249 265 277 280 272 265 265 273 258 261 227 230 217 211 207 213 214 220 224 226
265 267 260 251 247 241 240 229 221 227 234 238 248 265 276 280 271 264 267 275 260 247 236 224 210 207 209 218 219 215 222 221
269 264 259 250 249 240 237 229 225 229 229 237 253 268 275 278 265 263 270 280 253 236 217 214 211 205 206 214 220 219 225 210
275 264 258 249 248 238 236 225 225 227 230 239 257 268 274 275 260 255 257 261 247 224 219 225 220 212 214 208 215 220 224 225